Content
SEND FEEDBACK

Daily
Averages
Monthly
Summary
United Kingdom

COULTON, ENGLAND


Home > Europe > United Kingdom > England
Elevation: 89 feet     Latitude: 54 12N     Longitude: 001 22W

WEATHER
 
SELECT A DAY
Number of Records: 33,774;   Date Range: 5/2/06 - 10/20/14
 
SHARE

PRINT THIS DATA

[ ← Previous Day ]
WEATHER ALMANAC - OCTOBER 18, 2013
[ Next Day → ]
[ °C ]   °F
Weather ElementAverageHighLow
Temperature48.9 °F55.4 °F (2:50 pm)39.2 °F (1:50 am)
Dewpoint47.9 °F53.6 °F (2:50 pm)37.4 °F (1:50 am)
Humidity96.6 %100 % (2:50 am)93 % (1:50 am)
Barometer29.94 in30.01 in (1:50 am)29.77 in (11:50 pm)
Wind Speed7.6 mph16.1 mph (7:50 pm)
Weather ElementAverage
Visibility3 mi
Wind DirectionSW (226.3 °)

Weather ElementTotal
Precipitation---
Heating Degree Days17.7 (Base 65)
Averaged from 24 records on October 18, 2013
WEATHER CONDITIONS BREAKOUT
WIND DIRECTION BREAKOUT
WEATHER BY HOUR - OCTOBER 18, 2013
[ °C ]   °F
Local TimeTemperatureDewpointHumidityBarometerVisibilityWind DirectionWind SpeedGust SpeedPrecipitationEventsConditions
1:50 AM39.2 °F37.4 °F93 %30.01 inNorth (360°)3.5 mphFogPatches of Fog
2:50 AM39.2 °F39.2 °F100 %30.01 inSW (220°)3.5 mph
3:50 AM39.2 °F39.2 °F100 %30.01 inNNW (330°)3.5 mph
4:50 AM41.0 °F41.0 °F100 %29.98 inNorth (360°)4.6 mphFogPatches of Fog
5:50 AM42.8 °F41.0 °F93 %30.01 inWest (260°)3.5 mphMostly Cloudy
6:50 AM42.8 °F42.8 °F100 %30.01 inWest (280°)2.3 mphMostly Cloudy
7:50 AM42.8 °F42.8 °F100 %30.01 inWest (270°)2.3 mphOvercast
8:50 AM44.6 °F42.8 °F93 %30.01 in2.5 miNNW (330°)3.5 mphMostly Cloudy
9:50 AM44.6 °F44.6 °F100 %30.01 in2.5 miWNW (300°)3.5 mphMostly Cloudy
10:50 AM46.4 °F46.4 °F100 %30.01 in3.7 miNW (320°)3.5 mphMostly Cloudy
11:16 AM46.4 °F46.4 °F100 %30.01 in2.5 miNorth (350°)3.5 mphOvercast
11:50 AM48.2 °F48.2 °F100 %30.01 in2.5 miNW (320°)3.5 mphMostly Cloudy
12:50 PM50.0 °F50.0 °F100 %29.98 in4.3 miNNW (340°)3.5 mphOvercast
1:50 PM53.6 °F51.8 °F94 %29.95 inESE (110°)9.2 mphRainLight Rain Showers
2:50 PM55.4 °F53.6 °F94 %29.92 inESE (110°)9.2 mphMostly Cloudy
3:50 PM55.4 °F53.6 °F94 %29.89 inESE (120°)10.4 mphMostly Cloudy
4:50 PM55.4 °F53.6 °F94 %29.89 inESE (120°)10.4 mphOvercast
5:50 PM55.4 °F53.6 °F94 %29.86 inESE (120°)11.5 mphRainLight Rain Showers
6:50 PM55.4 °F53.6 °F94 %29.86 inSE (140°)11.5 mphOvercast
7:50 PM55.4 °F53.6 °F94 %29.83 inSE (130°)16.1 mphMostly Cloudy
8:50 PM55.4 °F53.6 °F94 %29.83 inSE (130°)12.7 mphOvercast
9:50 PM55.4 °F53.6 °F94 %29.80 inSE (140°)15.0 mphOvercast
10:50 PM55.4 °F53.6 °F94 %29.80 inSE (130°)15.0 mphMostly Cloudy
11:50 PM53.6 °F53.6 °F100 %29.77 inSE (140°)16.1 mphMostly Cloudy
Hourly data recorded from EGXZ, located miles away from Coulton, England







STORIES FROM OUR PARTNERS